www.pogodaiklimat.ru

Погода и климат >> Архив погоды >> Италия >> Конкордия-Саджиттария


ПОГОДА в Конкордия-Саджиттарии

  • Прогноз погоды в Конкордия-Саджиттарии
  • Монитор погоды в Конкордия-Саджиттарии

АРХИВ ПОГОДЫ в Конкордия-Саджиттарии

Время (UTC), дата Ветер
(напр.,м/с)
 
Видим.   Явления Облачность Т
(С)
Тd
(С)
f
(%)
Тe
(С)
Тes
(С)
Комфортность P
(гПа)
Po
(гПа)
Тmin
(С)
Tmax
(С)
R
(мм)
R24
(мм)
S
(см)
13 15.09 З 2 н/о н/о +28.1 +17.6 53 +32 +32 душно 1027.5 1022.7
14 15.09 штиль 0 н/о н/о +28.5 +19.1 57 +34 +34 очень
душно
1026.8 1022.1
15 15.09 ЮВ 3 н/о н/о +27.1 +18.3 59 +32 +32 очень
душно
1026.6 1021.8
16 15.09 ЮВ 2 н/о н/о +26.3 +18.9 64 +31 +31 душно 1026.3 1021.5
17 15.09 Ю 1 н/о н/о +24.3 +17.7 67 +28 +28 душно 1026.2 1021.4
18 15.09 Ю 1 н/о н/о +21.3 +16.8 76 +25 +25 комфорт 1026.3 1021.4 +29.0
19 15.09 Ю 1 н/о н/о +19.4 +16.4 83 +22 +22 комфорт 1026.5 1021.6
20 15.09 Ю 1 н/о н/о +18.8 +16.7 88 +22 +22 комфорт 1026.5 1021.6
21 15.09 З 1 н/о н/о +18.2 +16.5 90 +20 +20 1026.2 1021.3
22 15.09 штиль 0 н/о н/о +17.4 +15.7 90 +17 +17 1026.0 1021.1
23 15.09 В 1 н/о н/о +17.3 +15.6 90 +19 +19 1025.8 1020.9
00 16.09 штиль 0 н/о н/о +16.2 +14.5 90 +16 +16 1025.6 1020.7
01 16.09 штиль 0 н/о н/о +15.9 +14.2 90 +16 +16 1025.3 1020.3
02 16.09 штиль 0 н/о н/о +16.1 +14.4 90 +16 +16 1024.7 1019.8
03 16.09 С 1 н/о н/о +16.0 +14.3 90 +17 +17 1024.5 1019.6
04 16.09 штиль 0 н/о н/о +15.8 +14.1 90 +16 +16 1024.2 1019.3
05 16.09 С 2 н/о н/о +15.4 +13.7 90 +15 +15 1024.4 1019.4
06 16.09 С 1 н/о н/о +16.5 +14.8 90 +17 +17 1024.4 1019.5 +14.9 101
07 16.09 СВ 1 н/о н/о +19.3 +17.7 90 +23 +23 комфорт 1024.3 1019.4
08 16.09 С 1 н/о н/о +22.1 +20.3 90 +28 +28 душно 1024.3 1019.5
09 16.09 СВ 1 н/о н/о +24.1 +20.0 78 +30 +30 очень
душно
1024.2 1019.4
10 16.09 Ю 2 н/о н/о +25.7 +19.8 70 +31 +31 очень
душно
1023.7 1018.9
11 16.09 Ю 3 н/о н/о +27.4 +20.2 65 +34 +34 очень
душно
1023.1 1018.3
12 16.09 Ю 2 н/о н/о +27.9 +19.6 61 +34 +34 очень
душно
1022.6 1017.9
13 16.09 Ю 3 н/о н/о +27.9 +20.7 65 +35 +35 очень
душно
1021.9 1017.2
14 16.09 В 3 н/о н/о +27.4 +19.9 64 +34 +34 очень
душно
1021.5 1016.8
15 16.09 ЮВ 3 н/о н/о +26.6 +19.7 66 +32 +32 очень
душно
1021.1 1016.3
16 16.09 ЮВ 3 н/о н/о +25.4 +19.5 70 +31 +31 очень
душно
1020.8 1016.0
17 16.09 ЮВ 2 н/о н/о +23.5 +18.7 74 +28 +28 душно 1020.6 1015.8
18 16.09 Ю 1 н/о н/о +21.8 +18.7 83 +27 +27 душно 1020.7 1015.9 +28.3
19 16.09 штиль 0 н/о н/о +19.5 +16.8 84 +21 +21 комфорт 1021.2 1016.3
20 16.09 штиль 0 н/о н/о +19.0 +17.3 90 +20 +20 1021.3 1016.4
21 16.09 СВ 1 н/о н/о +19.3 +17.6 90 +23 +23 комфорт 1021.2 1016.3
22 16.09 штиль 0 н/о н/о +19.5 +17.8 90 +22 +22 комфорт 1021.4 1016.5
23 16.09 ЮВ 1 н/о н/о +19.4 +17.7 90 +23 +23 комфорт 1020.9 1016.0
00 17.09 штиль 0 н/о н/о +19.7 +18.0 90 +22 +22 комфорт 1020.7 1015.8
01 17.09 ЮВ 1 н/о н/о +19.9 +18.1 89 +24 +24 комфорт 1020.3 1015.4
02 17.09 штиль 0 н/о н/о +20.1 +18.3 89 +23 +23 комфорт 1020.1 1015.2
03 17.09 штиль 0 н/о н/о +20.4 +18.6 89 +24 +24 комфорт 1019.6 1014.8
04 17.09 штиль 0 н/о н/о +20.5 +18.7 89 +24 +24 комфорт 1019.4 1014.6
05 17.09 С 1 н/о н/о +20.2 +18.4 89 +25 +25 комфорт 1019.4 1014.6
06 17.09 С 2 н/о н/о +19.7 +18.0 90 +23 +23 комфорт 1019.7 1014.8 +18.8 602
07 17.09 С 1 н/о н/о +20.2 +18.4 89 +25 +25 комфорт 1020.0 1015.2
08 17.09 СВ 2 н/о н/о +21.9 +20.1 90 +28 +28 душно 1019.9 1015.1
09 17.09 СЗ 1 н/о н/о +23.4 +21.6 90 +32 +32 очень
душно
1020.1 1015.3
10 17.09 ЮВ 2 н/о н/о +24.4 +22.4 89 +32 +32 очень
душно
1019.8 1015.0
11 17.09 ЮВ 2 н/о н/о +24.8 +21.9 84 +32 +32 очень
душно
1019.6 1014.8
12 17.09 ЮВ 3 н/о н/о +25.2 +21.6 80 +32 +32 очень
душно
1019.1 1014.3
13 17.09 В 3 н/о н/о +26.3 +21.2 74 +33 +33 очень
душно
1018.7 1013.9
14 17.09 ЮВ 4 н/о н/о +25.8 +20.3 72 +32 +32 очень
душно
1018.3 1013.5
15 17.09 ЮВ 3 н/о н/о +25.3 +19.8 72 +31 +31 очень
душно
1017.9 1013.1
16 17.09 ЮВ 3 н/о н/о +24.2 +20.7 81 +30 +30 очень
душно
1017.8 1013.0
17 17.09 В 2 н/о н/о +23.1 +21.1 89 +31 +31 очень
душно
1017.6 1012.8
18 17.09 ЮВ 1 н/о н/о +21.7 +19.9 90 +27 +27 душно 1017.7 1012.9 +26.8
19 17.09 штиль 0 н/о н/о +20.4 +18.6 89 +24 +24 комфорт 1018.2 1013.4
20 17.09 штиль 0 н/о н/о +21.1 +19.3 89 +26 +26 душно 1018.6 1013.8
21 17.09 С 1 н/о н/о +20.9 +19.1 89 +26 +26 душно 1018.7 1013.9
22 17.09 СВ 2 н/о н/о +20.5 +18.7 89 +25 +25 комфорт 1018.5 1013.7
23 17.09 С 2 н/о н/о +20.7 +18.9 89 +26 +26 душно 1018.5 1013.7
00 18.09 СВ 1 н/о н/о +20.7 +18.9 89 +26 +26 душно 1018.5 1013.7
01 18.09 С 1 н/о н/о +20.1 +18.3 89 +24 +24 комфорт 1018.5 1013.7
02 18.09 штиль 0 н/о н/о +19.8 +18.1 90 +22 +22 комфорт 1018.6 1013.8
03 18.09 С 1 н/о н/о +19.8 +18.1 90 +24 +24 комфорт 1018.8 1013.9
04 18.09 С 2 н/о н/о +19.3 +17.6 90 +22 +22 комфорт 1019.0 1014.1
05 18.09 С 2 н/о н/о +19.3 +17.6 90 +22 +22 комфорт 1019.2 1014.3
06 18.09 штиль 0 н/о н/о +19.3 +17.6 90 +21 +21 комфорт 1019.8 1014.9 +19.1 0
07 18.09 С 2 н/о н/о +20.6 +18.8 89 +25 +25 комфорт 1020.0 1015.2
08 18.09 С 2 н/о н/о +22.7 +20.9 90 +30 +30 очень
душно
1020.5 1015.7
09 18.09 В 4 н/о н/о +23.6 +20.5 83 +29 +29 душно 1020.9 1016.1
10 18.09 В 6 н/о н/о +24.0 +20.7 82 +30 +30 очень
душно
1021.1 1016.3
11 18.09 СВ 5 н/о н/о +23.2 +15.7 63 +28 +28 душно 1021.4 1016.6
12 18.09 В 6 н/о н/о +22.1 +14.9 64 +26 +26 душно 1021.6 1016.8
13 18.09 СВ 4 н/о н/о +22.5 +15.3 64 +26 +26 жарко 1021.4 1016.6
14 18.09 СВ 4 н/о н/о +21.9 +14.2 62 +25 +25 комфорт 1021.5 1016.7
15 18.09 СВ 3 н/о н/о +21.2 +13.8 63 +24 +24 комфорт 1021.7 1016.9
16 18.09 СВ 3 н/о н/о +20.3 +13.4 65 +23 +23 комфорт 1022.0 1017.1
18 18.09 С 4 н/о н/о +18.4 +12.3 68 +19 +19 1022.7 1017.8 +24.5
19 18.09 СВ 3 н/о н/о +17.3 +11.5 69 +17 +17 1023.1 1018.2
20 18.09 С 3 н/о н/о +16.4 +11.7 74 +16 +16 1023.3 1018.4
21 18.09 С 3 н/о н/о +16.0 +11.5 75 +16 +16 1023.5 1018.6
22 18.09 С 2 н/о н/о +16.2 +11.5 74 +16 +16 1023.9 1019.0
23 18.09 С 3 н/о н/о +16.5 +11.4 72 +16 +16 1023.7 1018.8
00 19.09 СВ 3 н/о н/о +16.9 +10.5 66 +17 +17 1023.8 1018.9
01 19.09 С 3 н/о н/о +16.9 +9.5 62 +17 +17 1023.2 1018.3
02 19.09 С 5 н/о н/о +16.9 +8.3 57 +16 +16 1023.1 1018.2
03 19.09 С 5 н/о н/о +17.0 +7.0 52 +16 +16 1022.8 1017.9
04 19.09 С 3 н/о н/о +17.0 +5.5 47 +17 +17 1022.8 1017.9
05 19.09 СВ 4 н/о н/о +16.3 +4.9 47 +16 +16 1023.1 1018.2
06 19.09 С 4 н/о н/о +16.3 +5.2 48 +16 +16 1023.7 1018.8 +15.9 308
07 19.09 С 3 н/о н/о +16.7 +5.2 47 +17 +17 1024.5 1019.6
08 19.09 С 6 н/о н/о +19.3 +5.6 41 +19 +19 1024.9 1020.0
09 19.09 СВ 5 н/о н/о +21.0 +5.7 37 +22 +22 комфорт 1025.1 1020.2
10 19.09 СВ 7 н/о н/о +21.7 +7.5 40 +23 +23 комфорт 1024.7 1019.9
11 19.09 В 5 н/о н/о +22.5 +8.5 41 +24 +24 комфорт 1024.7 1019.9
12 19.09 СВ 5 н/о н/о +23.0 +8.6 40 +24 +24 комфорт 1024.4 1019.6
13 19.09 В 4 н/о н/о +22.9 +8.5 40 +24 +24 комфорт 1024.5 1019.7
14 19.09 СВ 8 н/о н/о +23.0 +8.6 40 +24 +24 комфорт 1024.3 1019.5
15 19.09 В 7 н/о н/о +22.5 +9.2 43 +24 +24 комфорт 1024.4 1019.6
16 19.09 В 4 н/о н/о +21.5 +9.7 47 +23 +23 комфорт 1025.0 1020.1
17 19.09 В 3 н/о н/о +19.5 +9.0 51 +21 +21 комфорт 1025.9 1021.0
18 19.09 СВ 4 н/о н/о +17.7 +8.2 54 +18 +18 1026.8 1021.9 +23.3
19 19.09 СВ 4 н/о н/о +16.8 +7.9 56 +16 +16 1027.6 1022.7
20 19.09 СВ 2 н/о н/о +15.1 +7.8 62 +15 +15 1028.4 1023.4
21 19.09 С 4 н/о н/о +14.8 +7.5 62 +14 +14 1029.3 1024.3
22 19.09 С 2 н/о н/о +13.6 +7.7 67 +13 +13 1029.9 1024.9
23 19.09 С 2 н/о н/о +12.4 +7.6 73 +12 +12 1030.2 1025.2
00 20.09 С 3 н/о н/о +13.0 +8.0 72 +12 +12 1030.6 1025.6
01 20.09 С 2 н/о н/о +12.1 +7.8 75 +11 +11 1030.5 1025.5
02 20.09 С 1 н/о н/о +11.7 +7.8 77 +12 +12 1030.8 1025.8
03 20.09 С 3 н/о н/о +13.1 +7.5 69 +12 +12 1030.8 1025.8
04 20.09 СВ 3 н/о н/о +13.0 +6.1 63 +12 +12 1030.8 1025.8
05 20.09 СВ 4 н/о н/о +12.9 +5.5 61 +11 +11 1030.8 1025.8
06 20.09 С 3 н/о н/о +12.2 +6.0 66 +11 +11 1031.2 1026.2 +11.6 605
07 20.09 С 4 н/о н/о +14.0 +6.8 62 +13 +13 1031.7 1026.7
08 20.09 СВ 7 н/о н/о +16.5 +6.0 50 +15 +15 1032.0 1027.0
09 20.09 С 3 н/о н/о +17.7 +6.2 47 +18 +18 1031.9 1027.0
10 20.09 С 4 н/о н/о +18.0 +6.1 46 +18 +18 1031.5 1026.6
11 20.09 С 4 н/о н/о +18.5 +6.3 45 +19 +19 1031.3 1026.4
12 20.09 В 3 н/о н/о +18.9 +6.6 45 +20 +20 1030.8 1025.9
13 20.09 З 1 н/о н/о +19.8 +6.4 42 +22 +22 комфорт 1030.2 1025.3
14 20.09 В 1 н/о н/о +20.9 +6.4 39 +23 +23 комфорт 1029.8 1024.9
15 20.09 В 1 н/о н/о +20.9 +7.1 41 +23 +23 комфорт 1029.4 1024.5
17 20.09 штиль 0 н/о н/о +16.8 +7.4 54 +17 +17 1029.4 1024.4
18 20.09 З 1 н/о н/о +12.5 +5.8 64 +14 +14 1029.8 1024.8 +21.6
19 20.09 В 2 н/о н/о +11.7 +7.8 77 +11 +11 1030.3 1025.3
20 20.09 СВ 1 н/о н/о +12.6 +7.6 72 +13 +13 1030.4 1025.4
21 20.09 СВ 2 н/о н/о +11.7 +7.2 74 +11 +11 1030.5 1025.5
22 20.09 С 2 н/о н/о +11.4 +8.0 80 +10 +10 1030.8 1025.7
23 20.09 С 2 н/о н/о +10.7 +7.0 78 +10 +10 1030.5 1025.4
00 21.09 С 2 н/о н/о +10.7 +7.7 82 +9 +9 1030.7 1025.6
01 21.09 С 2 н/о н/о +10.4 +8.0 85 +9 +9 1030.5 1025.4
02 21.09 СЗ 4 н/о н/о +10.7 +8.3 85 +8 +8 1030.0 1024.9
03 21.09 СЗ 3 н/о н/о +10.6 +7.8 83 +9 +9 1029.8 1024.7
04 21.09 С 2 н/о н/о +9.8 +7.5 86 +8 +8 1029.6 1024.5
05 21.09 С 2 н/о н/о +9.4 +7.8 90 +8 +8 1029.8 1024.7
06 21.09 СЗ 3 н/о н/о +10.3 +8.7 90 +8 +8 1030.0 1024.9 +9.1 405
07 21.09 С 4 н/о н/о +13.4 +9.6 78 +12 +12 1030.1 1025.1
08 21.09 СВ 3 н/о н/о +16.3 +9.7 65 +16 +16 1030.1 1025.1
09 21.09 СВ 4 н/о н/о +18.7 +8.3 51 +19 +19 1029.8 1024.9
10 21.09 С 1 н/о н/о +20.4 +6.6 41 +22 +22 комфорт 1029.3 1024.4
11 21.09 ЮВ 1 н/о н/о +20.7 +5.8 38 +23 +23 комфорт 1029.0 1024.1
12 21.09 ЮВ 3 н/о н/о +21.9 +8.4 42 +23 +23 комфорт 1028.4 1023.6
13 21.09 СЗ 1 н/о н/о +22.1 +6.3 36 +23 +23 комфорт 1028.2 1023.3
14 21.09 ЮВ 2 н/о н/о +22.3 +8.4 41 +24 +24 комфорт 1027.8 1022.9
15 21.09 ЮВ 2 н/о н/о +21.3 +10.1 49 +23 +23 комфорт 1027.8 1022.9
16 21.09 ЮВ 1 н/о н/о +20.7 +6.9 41 +23 +23 комфорт 1027.1 1022.2
17 21.09 ЮВ 1 н/о н/о +17.0 +7.6 54 +18 +18 1026.9 1022.0
18 21.09 штиль 0 н/о н/о +13.0 +7.2 68 +13 +13 1027.0 1022.0 +22.9
19 21.09 штиль 0 н/о н/о +11.2 +7.7 79 +11 +11 1027.2 1022.2
20 21.09 штиль 0 н/о н/о +10.7 +9.1 90 +10 +10 1027.6 1022.6
21 21.09 С 1 н/о н/о +10.3 +8.7 90 +10 +10 1027.5 1022.4
22 21.09 С 1 н/о н/о +10.4 +8.8 90 +10 +10 1026.8 1021.7
23 21.09 С 1 н/о н/о +10.0 +8.4 90 +9 +9 1026.5 1021.4
00 22.09 С 2 н/о н/о +10.4 +8.8 90 +9 +9 1026.3 1021.3
01 22.09 С 2 н/о н/о +10.0 +8.4 90 +8 +8 1025.7 1020.6
02 22.09 С 1 н/о н/о +9.9 +8.3 90 +9 +9 1025.4 1020.3
03 22.09 С 2 н/о н/о +9.9 +8.3 90 +9 +9 1024.9 1019.8
05 22.09 С 2 н/о н/о +10.7 +9.1 90 +9 +9 1024.8 1019.8
06 22.09 С 1 н/о н/о +11.2 +9.6 90 +11 +11 1024.6 1019.6 +9.6 603
07 22.09 С 2 н/о н/о +12.6 +11.0 90 +12 +12 1024.4 1019.4
08 22.09 СВ 4 н/о н/о +14.8 +11.9 83 +14 +14 1024.0 1019.0
09 22.09 В 1 н/о н/о +18.6 +12.5 68 +20 +20 1024.2 1019.3
10 22.09 ЮЗ 1 н/о н/о +18.6 +12.8 69 +21 +21 комфорт 1024.0 1019.1
11 22.09 С 1 н/о н/о +18.9 +12.4 66 +21 +21 комфорт 1023.2 1018.3
12 22.09 С 2 н/о н/о +18.8 +12.7 68 +20 +20 1022.7 1017.8

 

Местоположение метеостанции Конкордия-Саджиттария (Италия): широта 45.75 долгота 12.85 высота над уровнем моря 1 м.

В архиве по умолчанию представлена погода в Конкордия-Саджиттарии за последнюю неделю. Архивные данные за месяц целиком и за предыдущие месяцы, начиная с января 2011 года, Вы можете получить, выбрав интересующий диапазон дат из раскрывающегося списка и нажав кнопку "Ввод!".


*Определитесь, кто Вы:
робот инопланетянин человек

Внимание! Время в таблицах - всемирное. Для получения местного времени необходимо прибавить поправку, которая равна 1 ч.

Смотрите также архив погоды в соседних городах и на ближайших метеорологических станциях:

Погода на Базе ВВС Риволто (Италия) (29 км)
Погода на Базе ВВС Авиано (Италия) (36 км)
Погода в Авиано (Италия) (37 км)
Погода в Венеции (Италия) (49 км)
Погода в Ронки-деи-Леджонари (Италия) (49 км)
Погода в Венеция аэропорту (Италия) (51 км)
Погода в Тревизо (Италия) (53 км)
Погода в Тревизо аэропорту (Италия) (59 км)
Погода в Портороже (Словения) (62 км)
Погода в Новой Горице (Словения) (63 км)

Пояснения к столбцам:

Ветер - указаны скорость ветра в м/с - средняя за 10 мин, порывы в срок и между сроками (в фигурных скобках) и направление, откуда дует ветер: С - северный, СВ - северо-восточный, В - восточный, ЮВ - юго-восточный, Ю - южный, ЮЗ - юго-западный, З - западный, СЗ - северо-западный.
Видимость - горизонтальная дальность видимости в метрах или километрах. При видимости от 1 до 10 км при отсутствии осадков обычно наблюдается дымка, при ухудшении видимости до 1 км и менее - туман. В сухую погоду видимость может ухудшаться дымом, пылью или мглою.
Явления - указаны атмосферные явления, наблюдавшиеся в срок или в последний час перед сроком; фигурными скобками обозначены явления, наблюдавшиеся между сроками (за 1-3 часа до срока); квадратными скобками обозначены град или гололедные отложения с указанием их диаметра в мм.
Облачность - указаны через наклонную черту общая и нижняя облачность в баллах и высота нижней границы облаков в метрах; квадратными скобками обозначены формы облаков: Ci - перистые, Cs - перисто-слоистые, Cc - перисто-кучевые, Ac - высококучевые, As - высокослоистые, Sc - слоисто-кучевые, Ns - слоисто-дождевые, Cu - кучевые, Cb - кучево-дождевые. Подробнее классификацию облаков см. в Атласе облаков (PDF).
T - Температура воздуха - температура, измеренная на высоте 2 м над землей.
Td - Температура точки росы - температура, при понижении до которой содержащийся в воздухе водяной пар достигнет насыщения.
f - Относительная влажность воздуха - влажноcть воздуха, измеренная на высоте 2 м над землей.
Te - Эффективная температура - температура, которую ощущает одетый по сезону человек в тени. Характеристика душности погоды. При расчете учитывается влияние влажности воздуха и скорости ветра на теплоощущения человека.
Tes - Эффективная температура на солнце - температура, которую ощущает человек, с поправкой на солнечный нагрев. Характеристика знойности погоды. Зависит от высоты солнца над горизонтом, облачности и скорости ветра. Ночью, в пасмурную погоду, а также при ветре 12 м/с и более поправка равна нулю.
P - Атмосферное давление - приведенное к уровню моря атмосферное давление.
Po - Атмосферное давление - измеренное на уровне метеостанции атмосферное давление.
Tmin - Минимальная температура - минимум температуры воздуха на высоте 2 м над землей.
Tmax - Максимальная температура - максимум температуры воздуха на высоте 2 м над землей.
R - Количество осадков - Количество выпавших осадков за период времени, мм. При наведении курсора мыши на число - период времени, за который выпало указанное количество осадков.
R24 - Количество осадков - Количество выпавших осадков за 24 часа, мм.
S - Снежный покров - Высота снежного покрова, см. При наведении курсора мыши на число - состояние снежного покрова и степень покрытия местности в баллах.